Helicity
171 178 177 184 211 204 130 259 314 236 181 282 392 338 311 300 174 190 143 179 178 163 134 146 140 147 140 154 155 146 97 143 146 105 90 119 94 83 53 112 118 100 125 114
125 133 143 145 163 181 211 283 313 231 258 348 275 196 232 142 155 164 176 170 127 133 149 201 115 86 64 72 78 134 83 135 134 91 83 94 120 84 87 112 140 159 173 164
92 91 109 133 125 162 195 283 355 292 290 325 272 226 192 162 118 96 96 123 133 120 112 105 147 128 112 121 79 102 116 110 130 152 100 152 145 92 120 146 154 120 123 84
91 95 75 80 100 121 168 233 325 230 308 218 251 162 208 130 162 103 60 155 88 78 143 90 93 71 59 64 88 99 128 135 95 114 125 142 124 130 129 119 108 119 96 72
63 61 80 51 59 83 144 260 230 202 245 176 164 120 173 80 45 114 143 92 61 116 95 65 72 98 99 92 94 94 121 130 150 202 145 121 141 103 102 99 83 105 73 48
45 46 59 69 56 55 116 132 129 179 195 142 100 97 73 86 42 90 72 49 81 60 40 56 76 86 67 64 85 105 138 165 143 91 74 109 113 113 73 40 48 60 75 24
26 24 34 52 58 72 86 98 102 149 107 94 114 95 69 73 26 38 32 14 28 67 142 130 73 57 51 49 56 63 61 117 199 140 76 84 65 110 71 29 30 38 28 24
34 36 35 44 52 63 79 72 110 139 114 104 81 76 71 60 55 -7 32 17 39 146 173 106 50 62 65 56 49 38 53 66 92 102 69 44 60 59 33 -5 40 21 66 50
34 35 38 54 58 48 83 74 59 107 121 74 44 70 91 63 54 86 45 5 35 136 103 87 124 98 94 81 85 43 51 76 159 168 135 109 99 135 80 49 46 92 40 66
31 26 25 24 37 39 72 75 45 88 120 47 69 77 98 105 70 21 -6 -13 53 96 147 125 106 66 116 85 119 96 87 159 99 82 91 92 81 84 90 64 61 108 88 85
30 25 29 24 19 21 59 77 44 74 114 65 68 81 61 50 57 48 89 29 55 188 118 139 116 97 72 82 80 99 73 92 90 67 64 63 80 126 77 106 95 72 68 55
43 36 32 24 18 12 28 71 68 57 74 118 131 71 44 10 11 2 -14 -1 -46 17 77 58 69 59 76 51 82 41 9 56 69 134 112 150 84 80 54 23 -13 59 37 -9
45 35 24 18 14 11 28 61 54 69 68 -22 -22 -30 7 9 1 -2 -44 2 -57 51 55 53 44 38 41 36 34 53 55 38 84 59 63 28 44 58 -21 -41 -34 16 6 46
37 21 17 12 9 17 19 69 48 48 62 0 -2 37 18 24 5 -25 -11 8 -16 -20 3 24 30 30 41 9 29 65 56 75 48 39 32 18 19 67 36 10 -33 -44 -38 -9
2 8 7 -5 3 15 31 50 47 40 50 39 23 51 94 41 16 -17 -28 -4 -18 14 11 36 42 45 58 51 66 78 90 67 52 29 -9 19 31 9 11 3 -14 -25 -19 -6
-14 -15 -6 1 20 52 68 82 33 36 41 19 -37 9 6 63 52 2 -34 -62 47 117 -60 43 63 73 56 64 76 85 128 85 41 -26 0 5 10 28 21 4 6 -13 -31 -39
-24 -7 -4 -3 14 93 94 44 31 4 75 43 18 -37 -39 -41 -58 22 121 81 59 43 67 62 37 48 104 97 94 167 129 94 37 -10 21 6 -5 6 38 28 21 21 0 -15
-22 3 -1 1 -2 4 -13 -9 85 37 65 25 6 -1 -19 -65 21 45 38 62 63 39 46 60 57 131 127 171 170 33 14 -4 -2 27 0 -16 22 34 38 32 29 31 17 2
0 8 1 15 -9 0 -2 -32 -32 24 67 10 -14 -2 6 -15 46 26 24 45 46 59 51 81 108 129 177 110 32 -1 -16 -49 -21 -18 46 46 4 -3 11 21 18 43 54 38
6 15 12 7 3 -32 -31 -10 3 -44 -49 -35 -11 24 9 9 -1 37 23 18 42 38 22 82 92 127 109 -1 -6 7 17 7 -6 -22 -5 -18 -7 -3 6 12 23 37 56 53
18 13 8 -7 -33 15 -8 19 -3 -6 -21 -34 7 -5 7 -5 19 12 9 13 25 34 68 72 90 75 31 48 13 28 45 50 29 15 15 3 -5 2 21 27 27 25 62 88
15 -8 1 25 -4 -11 11 2 6 2 15 -12 -6 15 38 22 30 22 27 37 51 54 79 60 72 57 78 -38 7 40 53 43 15 16 12 8 6 -6 4 44 80 121 165 187
11 13 10 20 32 69 41 1 8 2 -10 2 24 46 50 49 46 47 38 39 54 92 77 84 49 36 1 -14 -1 44 62 42 23 28 30 36 57 56 50 68 86 85 97 82
65 80 45 39 30 41 27 23 21 14 2 3 5 68 41 48 29 34 49 54 57 39 44 60 61 26 13 8 -10 13 1 7 17 31 39 50 63 61 69 68 58 70 52 45
60 21 18 20 33 15 10 1 -5 11 17 26 34 34 25 43 49 46 63 44 31 52 15 11 37 12 10 15 23 20 12 5 18 32 43 60 72 90 112 139 91 95 90 88
1 9 9 -19 -24 -25 -30 -27 -28 17 26 61 60 64 57 49 61 83 59 42 72 90 41 23 20 17 21 21 23 35 42 33 30 54 63 66 74 79 86 106 130 114 95 99
-10 -17 -16 1 -3 -11 13 13 18 28 44 42 50 56 54 76 50 69 67 66 87 80 30 27 25 16 14 16 22 36 53 45 43 56 67 67 63 62 77 106 105 104 104 108
Wind_Speed
49 50 51 52 54 54 39 50 62 43 27 55 62 71 64 61 61 51 59 60 66 69 67 69 69 66 59 50 52 63 58 62 64 61 49 47 54 57 54 57 60 58 67 78
51 51 52 52 50 45 46 55 59 41 38 72 71 67 66 64 66 58 54 58 54 57 62 69 63 68 73 74 66 60 50 58 68 65 52 49 56 52 51 52 57 69 76 81
48 48 49 48 45 41 40 55 65 55 53 64 71 75 78 74 59 62 59 61 61 61 65 63 65 66 57 53 55 51 49 68 70 73 70 53 50 49 49 57 70 73 76 82
46 48 46 43 40 38 39 51 64 54 64 65 68 63 69 70 62 56 54 58 58 59 59 65 69 70 72 64 57 49 50 71 71 71 67 67 73 76 73 75 76 79 94 81
41 41 42 39 38 36 39 57 60 48 58 52 61 60 61 64 61 53 52 56 61 55 56 57 65 64 59 60 48 52 50 66 61 68 64 69 79 76 73 75 78 79 81 88
41 42 43 44 44 40 43 41 46 47 52 57 61 65 63 55 59 56 58 57 55 58 57 59 58 56 59 57 55 54 55 57 60 77 65 68 83 73 69 74 68 67 72 81
45 45 45 46 46 44 46 47 49 54 69 62 58 51 51 57 62 62 63 57 56 56 45 55 59 55 56 53 50 47 54 51 53 67 57 78 80 51 52 57 59 56 60 66
47 46 45 43 44 44 49 47 47 51 66 64 65 66 68 68 65 65 64 58 58 47 50 58 55 48 50 48 44 44 42 50 56 60 65 70 59 52 64 63 65 47 46 47
48 48 47 46 43 43 47 47 40 47 59 64 68 70 68 74 77 76 66 62 52 43 53 44 49 47 40 38 34 30 27 31 40 47 50 58 49 31 35 41 61 29 40 46
49 49 49 48 46 44 46 47 40 43 52 61 60 54 57 53 58 66 64 55 44 33 50 47 45 42 33 37 30 34 17 21 30 41 54 53 46 42 42 47 51 39 47 51
46 48 49 48 48 47 48 52 44 45 52 70 67 58 59 63 58 63 49 51 42 36 42 43 44 42 31 32 24 29 24 24 30 43 55 65 43 37 37 47 57 61 62 61
44 42 39 41 41 43 46 58 50 49 54 66 62 65 73 77 76 76 64 61 59 48 26 30 37 31 31 33 37 16 33 27 49 46 50 43 33 31 35 53 62 61 62 66
34 35 35 39 36 30 33 49 53 53 68 87 90 86 84 87 87 78 82 67 56 51 44 43 40 42 34 33 33 31 29 36 43 58 53 54 43 60 66 62 58 47 50 61
27 30 32 27 23 14 15 38 49 59 63 71 72 54 65 59 67 80 91 84 72 65 64 60 50 42 36 30 30 23 31 41 41 58 57 70 68 68 68 62 61 61 57 50
20 25 25 23 43 34 24 34 50 60 70 58 58 65 72 63 70 75 77 77 78 70 60 53 52 47 43 43 43 21 16 25 34 71 60 54 71 70 65 66 64 63 60 57
31 24 11 60 50 29 35 43 54 62 64 60 60 43 52 56 51 63 70 72 72 57 55 53 46 45 44 42 32 32 21 19 17 73 71 73 76 72 68 72 71 69 64 59
39 25 54 61 44 13 28 45 43 47 45 52 53 52 45 45 46 51 54 53 42 42 47 48 55 46 36 45 32 27 23 23 21 46 74 74 72 69 61 63 63 61 65 63
35 50 58 54 45 39 61 48 24 34 49 48 51 50 45 44 42 41 40 30 33 40 46 43 43 39 38 50 36 46 26 17 44 55 67 63 66 62 63 64 66 62 58 54
54 54 48 46 49 52 57 57 47 39 43 51 53 51 40 36 38 35 32 34 35 38 43 41 37 35 41 39 57 72 71 48 57 55 61 52 59 68 68 59 54 56 57 46
57 49 45 45 49 48 47 46 49 49 52 57 49 48 48 39 34 30 30 32 35 38 38 33 37 38 22 38 71 65 66 58 56 63 67 65 70 70 67 67 57 60 55 39
54 51 47 42 59 48 47 46 49 49 48 51 56 58 44 39 38 34 34 33 35 40 37 33 38 42 43 44 55 48 44 42 48 55 60 62 63 62 55 50 49 47 37 26
51 49 44 48 43 42 40 41 42 45 46 41 46 44 45 37 37 32 29 35 38 36 36 35 40 46 40 38 45 37 34 32 33 37 41 42 44 44 39 33 24 23 23 21
42 38 37 40 40 40 37 38 37 37 37 41 35 27 29 30 33 33 33 35 34 38 39 41 49 44 43 42 28 32 34 35 37 37 36 34 30 26 19 21 21 20 19 16
36 37 37 32 32 34 32 35 34 32 30 25 25 27 30 30 28 30 28 30 35 43 40 48 47 45 45 41 36 33 36 38 40 40 37 33 28 25 25 20 19 20 18 15
34 34 32 29 29 30 29 29 29 28 26 24 24 26 29 27 27 25 26 34 36 31 44 44 41 42 42 40 39 40 41 43 42 40 36 32 29 26 24 21 20 21 18 18
32 33 34 33 34 33 33 33 32 31 27 28 29 29 32 27 26 22 26 37 40 41 38 44 42 42 42 43 45 45 44 43 39 34 32 30 29 25 23 21 22 21 18 18
36 37 38 39 40 40 37 37 35 29 29 32 32 32 32 32 28 28 30 38 43 45 42 39 41 46 50 48 48 46 44 40 35 31 30 29 26 23 23 22 22 20 19 18
Wind_Direction
308 308 308 307 304 305 295 295 291 303 292 286 288 282 286 294 294 297 292 297 292 291 293 292 291 291 291 305 304 295 294 294 290 291 299 298 292 292 292 288 293 292 295 292
306 305 305 306 306 303 299 292 290 303 290 285 283 288 288 286 286 289 292 291 293 295 292 294 292 292 289 288 289 291 295 288 290 289 291 291 288 288 289 293 296 290 292 294
306 307 307 308 310 307 300 294 293 290 282 287 284 287 287 285 291 283 281 287 290 292 289 288 293 293 297 300 292 293 292 283 283 285 289 300 291 292 295 293 289 293 289 297
310 311 310 308 308 308 296 291 289 292 293 280 282 281 290 288 285 286 291 289 281 287 290 291 289 289 289 291 293 293 290 284 286 287 289 290 289 288 290 288 289 288 292 294
316 315 316 312 305 305 294 290 289 294 293 290 287 284 282 284 284 288 291 282 288 290 284 287 292 296 296 293 299 289 291 286 291 288 291 292 289 290 291 290 290 290 291 292
312 310 308 307 304 297 298 295 293 296 290 293 288 283 283 293 292 290 285 287 287 286 287 292 294 296 296 295 292 290 293 292 290 287 292 293 289 293 290 292 291 290 289 294
304 303 302 298 297 296 293 295 295 290 285 280 283 294 292 288 289 290 296 289 285 293 299 299 294 293 295 292 287 286 283 288 292 294 294 288 297 302 300 299 299 298 297 300
302 302 300 299 296 295 291 292 291 291 283 284 284 281 285 290 286 287 292 296 285 297 296 296 296 297 297 291 285 282 278 281 288 289 289 295 297 302 302 296 299 305 302 312
301 301 299 297 296 293 291 290 288 289 289 284 283 282 284 282 281 283 286 299 297 289 291 293 290 292 303 307 313 302 272 280 284 293 296 298 313 322 318 318 300 316 310 309
299 299 298 296 293 290 286 286 289 286 287 286 286 285 285 289 286 282 284 296 301 292 286 277 290 292 303 304 306 317 294 283 281 291 295 301 303 310 313 304 305 307 302 300
297 298 299 296 292 286 281 281 280 281 285 278 280 284 283 281 283 277 284 297 300 295 282 278 285 290 296 301 304 317 314 307 298 298 293 295 305 318 299 302 294 288 286 283
295 297 298 299 296 290 282 277 276 277 278 275 282 277 267 263 264 264 267 262 278 292 290 292 293 295 301 300 302 310 299 289 295 299 298 318 324 319 320 299 289 285 279 273
286 290 292 296 299 296 287 280 273 270 271 255 250 246 253 248 251 256 242 255 258 272 284 287 287 289 306 307 313 311 311 307 303 296 298 297 298 294 264 261 255 292 299 284
268 279 287 297 300 281 275 281 271 260 261 252 253 279 263 272 263 249 237 234 248 262 273 267 275 290 308 320 324 325 321 312 312 296 297 278 271 252 261 265 271 256 283 302
244 270 284 298 235 291 290 286 269 255 243 251 263 264 257 265 259 250 242 215 230 245 261 265 272 289 304 310 315 317 317 307 309 277 285 286 260 269 275 272 268 263 273 286
185 183 199 224 268 296 286 281 265 250 244 250 251 271 259 265 268 245 231 215 237 254 258 267 287 295 306 314 315 332 322 304 283 249 275 272 267 277 279 267 268 263 260 269
168 164 198 222 267 306 278 264 267 244 237 249 253 247 258 250 259 248 248 254 253 252 265 279 282 304 315 312 259 310 293 294 252 228 271 266 264 272 284 279 275 279 275 260
148 172 198 210 250 194 205 207 267 229 228 242 236 234 243 237 250 240 240 256 263 269 274 294 307 316 319 316 318 323 313 253 226 228 235 229 267 280 277 278 273 275 277 280
159 178 214 218 201 203 204 205 229 234 234 222 223 225 242 241 253 253 257 267 279 291 295 307 321 324 321 320 320 299 284 232 231 222 261 285 280 270 268 278 277 274 276 287
173 187 184 184 185 184 187 201 209 217 212 216 227 225 231 242 251 266 270 282 294 304 315 335 328 328 313 329 282 270 270 237 226 234 239 240 251 266 272 268 279 275 283 295
169 169 168 171 155 170 174 188 197 202 213 216 223 217 231 242 252 264 277 301 312 319 331 341 340 333 337 349 316 299 281 255 233 239 257 261 262 268 278 278 279 287 300 303
161 160 158 160 171 174 191 202 211 215 217 223 227 241 246 257 262 284 311 313 318 330 338 342 329 315 338 280 303 278 293 293 298 298 293 292 284 278 286 302 323 329 327 319
169 175 180 175 172 185 204 211 219 227 233 238 249 264 265 272 279 301 316 324 332 339 326 323 284 302 298 288 255 300 301 307 328 327 316 321 321 328 347 348 1 12 10 7
176 175 177 186 187 196 207 220 231 248 259 266 263 267 280 293 306 317 347 343 340 322 326 291 280 296 297 304 300 290 304 311 315 321 325 326 329 333 339 7 29 35 36 17
199 203 211 207 224 234 237 238 244 259 258 268 281 298 306 312 329 348 356 329 319 342 315 291 300 304 305 305 303 299 308 313 318 326 330 331 333 337 340 342 5 13 31 36
212 228 242 250 249 260 263 261 265 274 286 296 313 319 319 329 339 356 334 306 309 331 331 310 309 311 312 305 298 302 315 319 338 342 344 347 350 352 353 353 355 4 13 25
272 256 269 279 279 275 287 292 299 317 312 308 316 319 318 329 336 331 316 314 322 326 327 327 319 314 309 308 302 305 312 324 343 350 351 351 355 359 354 351 349 358 7 21